Location: Orange Harbor Mobile Home Park
(26.6923°N, 81.7937°W)
Time: 22:44:22
(UTC+00:00)

Cosmos 2016 Rocket - Pass Details

Date: 19 September 2020
Orbit: 946 x 1001 km, 83.0° (Epoch: 25 October)

Event Time Altitude Azimuth Distance (km) Brightness Sun altitude
Rises 10:40:06 0° 356° (N) 3,621 7.0 -8.5°
Reaches altitude 10° 10:42:36 10° 357° (N) 2,670 6.3 -8.0°
Maximum altitude 10:48:42 83° 85° (E) 956 4.1 -6.6°
Drops below altitude 10° 10:54:46 10° 173° (S) 2,659 6.3 -5.3°
Sets 10:57:15 0° 174° (S) 3,605 7.0 -4.7°
